,,,PA_Meas_PMT16A,,PR_Meas_QMR101_102,,RH_Meas_QMH101,,SR_Meas_QMS101,,TA_Meas_QMH101,,GenWind,,GenWind,
date,time,status,PA,status,PR,status,RH,status,SR,status,TA,status,DirAvg,status,SpdAvg,
2008-07-23, 07:00:04,VALID,1004.36,VALID,0,VALID,92.6375,VALID,182.119,VALID,25.5727,VALID,288,VALID,0.176563,
2008-07-23, 07:01:04,VALID,1004.36,VALID,0,VALID,92.1492,VALID,181.214,VALID,25.67,VALID,290,VALID,0.446094,
2008-07-23, 07:02:04,VALID,1004.36,VALID,0,VALID,91.5466,VALID,186.343,VALID,25.7285,VALID,335,VALID,0.566797,
2008-07-23, 07:03:04,VALID,1004.36,VALID,0,VALID,91.4932,VALID,190.466,VALID,25.748,VALID,354,VALID,0.537109,
2008-07-23, 07:04:04,VALID,1004.39,VALID,0,VALID,91.2185,VALID,199.316,VALID,25.8278,VALID,354,VALID,0.589453,
2008-07-23, 07:05:04,VALID,1004.38,VALID,0,VALID,91.1651,VALID,199.919,VALID,25.8668,VALID,348,VALID,0.54375,
2008-07-23, 07:06:04,VALID,1004.39,VALID,0,VALID,90.6616,VALID,202.735,VALID,25.8863,VALID,355,VALID,0.655859,
2008-07-23, 07:07:04,VALID,1004.38,VALID,0,VALID,90.8752,VALID,205.953,VALID,25.9232,VALID,356,VALID,0.624219,
2008-07-23, 07:08:04,VALID,1004.37,VALID,0,VALID,90.9897,VALID,204.042,VALID,26.0226,VALID,357,VALID,0.421484,
2008-07-23, 07:09:04,VALID,1004.36,VALID,0,VALID,90.2802,VALID,204.847,VALID,26.0421,VALID,356,VALID,0.553125,
2008-07-23, 07:10:04,VALID,1004.43,VALID,0,VALID,89.4563,VALID,205.148,VALID,26.1005,VALID,356,VALID,0.453906,
2008-07-23, 07:11:04,VALID,1004.44,VALID,0,VALID,89.7996,VALID,205.148,VALID,26.159,VALID,356,VALID,0.170703,
2008-07-23, 07:12:04,VALID,1004.43,VALID,0,VALID,89.7156,VALID,207.361,VALID,26.3148,VALID,356,VALID,0.250781,
2008-07-23, 07:13:04,VALID,1004.43,VALID,0,VALID,88.7315,VALID,204.646,VALID,26.4317,VALID,356,VALID,0.245312,
2008-07-23, 07:14:04,VALID,1004.43,VALID,0,VALID,87.7779,VALID,205.752,VALID,26.5681,VALID,355,VALID,0.553125,
2008-07-23, 07:15:04,VALID,1004.44,VALID,0,VALID,86.5496,VALID,220.333,VALID,26.6675,VALID,355,VALID,0.667969,
2008-07-23, 07:16:04,VALID,1004.46,VALID,0,VALID,86.8624,VALID,219.931,VALID,26.7045,VALID,357,VALID,0.714063,
2008-07-23, 07:17:04,VALID,1004.47,VALID,0,VALID,86.2216,VALID,217.618,VALID,26.7629,VALID,358,VALID,0.594922,
2008-07-23, 07:18:04,VALID,1004.47,VALID,0,VALID,86.3742,VALID,219.629,VALID,26.7434,VALID,358,VALID,0.482812,
2008-07-23, 07:19:04,VALID,1004.48,VALID,0,VALID,86.2598,VALID,216.814,VALID,26.7824,VALID,359,VALID,0.617969,
2008-07-23, 07:20:04,VALID,1004.47,VALID,0,VALID,85.3214,VALID,216.814,VALID,26.8234,VALID,359,VALID,0.947266,
2008-07-23, 07:21:04,VALID,1004.45,VALID,0,VALID,85.8859,VALID,125,VALID,26.7629,VALID,358,VALID,0.490625,
2008-07-23, 07:22:04,VALID,1004.47,VALID,0,VALID,86.1758,VALID,131.134,VALID,26.7649,VALID,358,VALID,0.511328,
2008-07-23, 07:23:04,VALID,1004.52,VALID,0,VALID,86.8548,VALID,225.261,VALID,26.7239,VALID,358,VALID,0.383984,
2008-07-23, 07:24:04,VALID,1004.54,VALID,0,VALID,86.1301,VALID,223.853,VALID,26.7045,VALID,359,VALID,0.391406,
2008-07-23, 07:25:04,VALID,1004.55,VALID,0,VALID,85.9622,VALID,228.982,VALID,26.7045,VALID,12,VALID,0.386328,
2008-07-23, 07:26:04,VALID,1004.6,VALID,0,VALID,85.7639,VALID,239.34,VALID,26.726,VALID,12,VALID,0.423828,
2008-07-23, 07:27:04,VALID,1004.6,VALID,0,VALID,84.9476,VALID,235.217,VALID,26.7455,VALID,11,VALID,0.593359,
2008-07-23, 07:28:04,VALID,1004.62,VALID,0,VALID,84.8332,VALID,97.8477,VALID,26.7844,VALID,10,VALID,0.367188,
2008-07-23, 07:29:04,VALID,1004.63,VALID,0,VALID,85.3901,VALID,73.4109,VALID,26.8019,VALID,10,VALID,0.157813,
2008-07-23, 07:30:04,VALID,1004.62,VALID,0,VALID,85.5274,VALID,162.711,VALID,26.8019,VALID,10,VALID,0.213672,
2008-07-23, 07:31:04,VALID,1004.66,VALID,0,VALID,85.3824,VALID,232.401,VALID,26.8214,VALID,10,VALID,0,
2008-07-23, 07:32:04,VALID,1004.64,VALID,0,VALID,84.8637,VALID,242.558,VALID,26.9188,VALID,10,VALID,0,
2008-07-23, 07:33:04,VALID,1004.64,VALID,0,VALID,84.5127,VALID,67.176,VALID,27.0747,VALID,10,VALID,0,
2008-07-23, 07:34:04,VALID,1004.64,VALID,0,VALID,83.6202,VALID,70.2935,VALID,27.0747,VALID,10,VALID,0.244141,
2008-07-23, 07:35:04,VALID,1004.64,VALID,0,VALID,82.9946,VALID,76.629,VALID,27.0357,VALID,10,VALID,0.0238281,
2008-07-23, 07:36:04,VALID,1004.67,VALID,0,VALID,83.5591,VALID,167.84,VALID,27.0377,VALID,20,VALID,0.0902344,
2008-07-23, 07:37:04,VALID,1004.69,VALID,0,VALID,84.2839,VALID,270.715,VALID,27.0942,VALID,20,VALID,0.00429688,
2008-07-23, 07:38:04,VALID,1004.68,VALID,0,VALID,84.4517,VALID,192.679,VALID,27.2111,VALID,20,VALID,0.165625,
2008-07-23, 07:39:04,VALID,1004.69,VALID,0,VALID,83.9253,VALID,312.751,VALID,27.3301,VALID,20,VALID,0.194531,
2008-07-23, 07:40:04,VALID,1004.69,VALID,0,VALID,83.8261,VALID,318.081,VALID,27.4254,VALID,54,VALID,0.426562,
2008-07-23, 07:41:04,VALID,1004.7,VALID,0,VALID,82.2927,VALID,339.199,VALID,27.4839,VALID,76,VALID,0.70625,
2008-07-23, 07:42:04,VALID,1004.67,VALID,0,VALID,82.0944,VALID,359.613,VALID,27.5424,VALID,88,VALID,0.434766,
2008-07-23, 07:43:04,VALID,1004.7,VALID,0,VALID,82.8573,VALID,363.937,VALID,27.7394,VALID,88,VALID,0.08125,
2008-07-23, 07:44:04,VALID,1004.71,VALID,0,VALID,78.6538,VALID,157.783,VALID,27.6809,VALID,103,VALID,0.894141,
2008-07-23, 07:45:04,VALID,1004.74,VALID,0,VALID,79.6455,VALID,353.278,VALID,27.644,VALID,99,VALID,1.03711,
2008-07-23, 07:46:04,VALID,1004.76,VALID,0,VALID,80.4923,VALID,351.97,VALID,27.6224,VALID,105,VALID,0.696094,
2008-07-23, 07:47:04,VALID,1004.8,VALID,0,VALID,80.355,VALID,346.138,VALID,27.6224,VALID,129,VALID,1.1832,
2008-07-23, 07:48:04,VALID,1004.78,VALID,0,VALID,80.0117,VALID,335.076,VALID,27.525,VALID,106,VALID,1.34805,
2008-07-23, 07:49:04,VALID,1004.78,VALID,0,VALID,80.7059,VALID,328.137,VALID,27.4644,VALID,99,VALID,1.10312,
2008-07-23, 07:50:04,VALID,1004.78,VALID,0,VALID,81.4764,VALID,332.863,VALID,27.4644,VALID,62,VALID,0.700781,
2008-07-23, 07:51:04,VALID,1004.77,VALID,0,VALID,81.8274,VALID,345.937,VALID,27.5034,VALID,101,VALID,1.01016,
2008-07-23, 07:52:04,VALID,1004.81,VALID,0,VALID,80.9424,VALID,352.875,VALID,27.4839,VALID,116,VALID,1.00547,
2008-07-23, 07:53:04,VALID,1004.81,VALID,0,VALID,81.0492,VALID,355.289,VALID,27.5034,VALID,111,VALID,0.607813,
2008-07-23, 07:54:04,VALID,1004.89,VALID,0,VALID,81.6824,VALID,354.786,VALID,27.6203,VALID,88,VALID,0.399219,
2008-07-23, 07:55:04,VALID,1004.9,VALID,0,VALID,81.1942,VALID,363.334,VALID,27.7351,VALID,117,VALID,0.323047,
2008-07-23, 07:56:04,VALID,1004.96,VALID,0,VALID,79.6531,VALID,374.798,VALID,27.8542,VALID,134,VALID,0.962891,
2008-07-23, 07:57:04,VALID,1004.97,VALID,0,VALID,81.3544,VALID,380.128,VALID,27.8542,VALID,113,VALID,0.895703,
2008-07-23, 07:58:04,VALID,1004.98,VALID,0,VALID,78.1503,VALID,381.134,VALID,27.9148,VALID,57,VALID,0.568359,
2008-07-23, 07:59:04,VALID,1004.96,VALID,0,VALID,77.5857,VALID,154.062,VALID,28.0902,VALID,57,VALID,0.00195313,
2008-07-23, 08:00:04,VALID,1004.97,VALID,0,VALID,77.0517,VALID,85.1768,VALID,28.1487,VALID,151,VALID,0.489062,
2008-07-23, 08:01:04,VALID,1004.96,VALID,0,VALID,78.074,VALID,84.3723,VALID,28.0122,VALID,147,VALID,1.31758,
2008-07-23, 08:02:04,VALID,1004.96,VALID,0,VALID,79.2259,VALID,363.736,VALID,27.8173,VALID,129,VALID,0.90625,
2008-07-23, 08:03:04,VALID,1004.94,VALID,0,VALID,79.6074,VALID,395.414,VALID,27.7199,VALID,138,VALID,0.701563,
2008-07-23, 08:04:04,VALID,1004.95,VALID,0,VALID,82.0257,VALID,399.335,VALID,27.7978,VALID,121,VALID,0.676953,
2008-07-23, 08:05:04,VALID,1004.97,VALID,0,VALID,80.1566,VALID,400.643,VALID,27.8368,VALID,131,VALID,1.07891,
2008-07-23, 08:06:04,VALID,1004.95,VALID,0,VALID,79.0505,VALID,405.671,VALID,27.8758,VALID,166,VALID,1.36992,
2008-07-23, 08:07:04,VALID,1004.9,VALID,0,VALID,80.3855,VALID,408.99,VALID,27.8758,VALID,162,VALID,1.16602,
2008-07-23, 08:08:04,VALID,1004.95,VALID,0,VALID,79.0581,VALID,409.593,VALID,27.8932,VALID,150,VALID,1.46016,
2008-07-23, 08:09:04,VALID,1004.97,VALID,0,VALID,78.3791,VALID,418.141,VALID,27.8542,VALID,122,VALID,1.24844,
2008-07-23, 08:10:04,VALID,1004.97,VALID,0,VALID,79.6913,VALID,424.979,VALID,27.8737,VALID,158,VALID,1.76211,
2008-07-23, 08:11:04,VALID,1004.94,VALID,0,VALID,78.1197,VALID,431.516,VALID,27.8737,VALID,161,VALID,1.19375,
2008-07-23, 08:12:04,VALID,1004.93,VALID,0,VALID,79.3709,VALID,430.812,VALID,27.9127,VALID,136,VALID,0.805078,
2008-07-23, 08:13:04,VALID,1004.95,VALID,0,VALID,78.3333,VALID,440.164,VALID,27.9538,VALID,167,VALID,1.61484,
2008-07-23, 08:14:04,VALID,1004.9,VALID,0,VALID,78.73,VALID,452.03,VALID,27.9733,VALID,190,VALID,1.31211,
2008-07-23, 08:15:04,VALID,1004.92,VALID,0,VALID,80.5228,VALID,462.388,VALID,28.0101,VALID,183,VALID,0.878906,
2008-07-23, 08:16:04,VALID,1004.91,VALID,0,VALID,80.0117,VALID,474.255,VALID,28.0296,VALID,141,VALID,0.907031,
2008-07-23, 08:17:04,VALID,1004.95,VALID,0,VALID,77.4179,VALID,496.68,VALID,28.1076,VALID,116,VALID,1.49961,
2008-07-23, 08:18:04,VALID,1004.91,VALID,0,VALID,79.615,VALID,376.307,VALID,28.166,VALID,119,VALID,0.975781,
2008-07-23, 08:19:04,VALID,1004.9,VALID,0,VALID,77.2577,VALID,494.971,VALID,28.2656,VALID,159,VALID,1.18516,
2008-07-23, 08:20:04,VALID,1004.9,VALID,0,VALID,78.7072,VALID,532.984,VALID,28.2245,VALID,114,VALID,1.29688,
2008-07-23, 08:21:04,VALID,1004.89,VALID,0,VALID,76.5558,VALID,538.515,VALID,28.2072,VALID,134,VALID,1.57305,
2008-07-23, 08:22:04,VALID,1004.87,VALID,0,VALID,79.0657,VALID,523.531,VALID,28.1466,VALID,136,VALID,0.880859,
2008-07-23, 08:23:04,VALID,1004.87,VALID,0,VALID,77.8985,VALID,519.709,VALID,28.2072,VALID,138,VALID,1.57305,
2008-07-23, 08:24:04,VALID,1004.82,VALID,0,VALID,78.5775,VALID,163.616,VALID,28.1292,VALID,145,VALID,1.54375,
2008-07-23, 08:25:04,VALID,1004.83,VALID,0,VALID,79.6989,VALID,498.993,VALID,28.1097,VALID,159,VALID,1.12773,
2008-07-23, 08:26:04,VALID,1004.84,VALID,0,VALID,79.2259,VALID,478.378,VALID,28.0902,VALID,177,VALID,1.19375,
2008-07-23, 08:27:04,VALID,1004.85,VALID,0,VALID,77.5399,VALID,474.154,VALID,28.0317,VALID,154,VALID,1.55664,
2008-07-23, 08:28:04,VALID,1004.87,VALID,0,VALID,77.2424,VALID,487.931,VALID,28.0317,VALID,143,VALID,1.47266,
2008-07-23, 08:29:04,VALID,1004.85,VALID,0,VALID,78.6004,VALID,493.663,VALID,27.9906,VALID,158,VALID,1.43711,
2008-07-23, 08:30:04,VALID,1004.87,VALID,0,VALID,78.936,VALID,495.071,VALID,28.0881,VALID,167,VALID,1.53711,
2008-07-23, 08:31:04,VALID,1004.86,VALID,0,VALID,77.5781,VALID,494.267,VALID,28.1292,VALID,164,VALID,1.82461,
2008-07-23, 08:32:04,VALID,1004.88,VALID,0,VALID,77.8985,VALID,493.161,VALID,28.0707,VALID,146,VALID,1.96445,
2008-07-23, 08:33:04,VALID,1004.87,VALID,0,VALID,78.3791,VALID,499.898,VALID,28.1076,VALID,164,VALID,1.14336,
2008-07-23, 08:34:04,VALID,1004.85,VALID,0,VALID,77.5399,VALID,458.064,VALID,28.1855,VALID,191,VALID,0.835938,
2008-07-23, 08:35:04,VALID,1004.86,VALID,0,VALID,77.9824,VALID,383.447,VALID,28.205,VALID,183,VALID,0.738281,
2008-07-23, 08:36:04,VALID,1004.83,VALID,0,VALID,79.6303,VALID,474.959,VALID,28.1855,VALID,149,VALID,1.52813,
2008-07-23, 08:37:04,VALID,1004.8,VALID,0,VALID,78.3181,VALID,525.341,VALID,28.2245,VALID,100,VALID,0.496875,
2008-07-23, 08:38:04,VALID,1004.8,VALID,0,VALID,77.9595,VALID,640.988,VALID,28.3003,VALID,93,VALID,0.685156,
2008-07-23, 08:39:04,VALID,1004.83,VALID,0,VALID,79.3327,VALID,629.021,VALID,28.4584,VALID,158,VALID,1.15898,
2008-07-23, 08:40:04,VALID,1004.81,VALID,0,VALID,75.3657,VALID,614.641,VALID,28.5342,VALID,180,VALID,1.27227,
2008-07-23, 08:41:04,VALID,1004.8,VALID,0,VALID,77.2577,VALID,604.584,VALID,28.6122,VALID,191,VALID,1.36484,
2008-07-23, 08:42:04,VALID,1004.8,VALID,0,VALID,75.4878,VALID,601.065,VALID,28.6534,VALID,183,VALID,1.16289,
2008-07-23, 08:43:04,VALID,1004.77,VALID,0,VALID,75.2513,VALID,594.83,VALID,28.6729,VALID,194,VALID,0.628125,
2008-07-23, 08:44:04,VALID,1004.8,VALID,0,VALID,76.1133,VALID,625.904,VALID,28.753,VALID,178,VALID,1.09375,
2008-07-23, 08:45:04,VALID,1004.81,VALID,0,VALID,77.4942,VALID,655.771,VALID,28.6924,VALID,166,VALID,0.523438,
2008-07-23, 08:46:04,VALID,1004.8,VALID,0,VALID,77.5323,VALID,705.65,VALID,28.7725,VALID,154,VALID,1.26406,
2008-07-23, 08:47:04,VALID,1004.78,VALID,0,VALID,75.9226,VALID,757.742,VALID,28.831,VALID,174,VALID,1.28516,
2008-07-23, 08:48:04,VALID,1004.78,VALID,0,VALID,75.9531,VALID,771.62,VALID,28.9263,VALID,170,VALID,1.36875,
2008-07-23, 08:49:04,VALID,1004.79,VALID,0,VALID,76.5863,VALID,402.956,VALID,29.1625,VALID,169,VALID,0.551172,
2008-07-23, 08:50:04,VALID,1004.79,VALID,0,VALID,73.1686,VALID,805.006,VALID,29.2795,VALID,215,VALID,0.498437,
2008-07-23, 08:51:04,VALID,1004.79,VALID,0,VALID,77.1127,VALID,755.932,VALID,29.4745,VALID,197,VALID,0.723828,
2008-07-23, 08:52:04,VALID,1004.79,VALID,0,VALID,73.756,VALID,732.098,VALID,29.5135,VALID,139,VALID,0.899219,
2008-07-23, 08:53:04,VALID,1004.79,VALID,0,VALID,72.9474,VALID,543.342,VALID,29.4723,VALID,140,VALID,1.76406,
2008-07-23, 08:54:04,VALID,1004.77,VALID,0,VALID,72.8558,VALID,319.69,VALID,29.2968,VALID,133,VALID,1.11523,
2008-07-23, 08:55:04,VALID,1004.76,VALID,0,VALID,73.7331,VALID,306.918,VALID,29.2188,VALID,156,VALID,1.27539,
2008-07-23, 08:56:04,VALID,1004.74,VALID,0,VALID,73.5424,VALID,318.483,VALID,29.0823,VALID,126,VALID,1.48672,
2008-07-23, 08:57:04,VALID,1004.71,VALID,0,VALID,73.9925,VALID,608.808,VALID,28.8873,VALID,153,VALID,1.29844,
2008-07-23, 08:58:04,VALID,1004.73,VALID,0,VALID,77.7154,VALID,811.442,VALID,28.8483,VALID,121,VALID,1.34727,
2008-07-23, 08:59:04,VALID,1004.7,VALID,0,VALID,74.5342,VALID,284.493,VALID,29.0628,VALID,151,VALID,1.71133,
2008-07-23, 09:00:04,VALID,1004.69,VALID,0,VALID,74.3968,VALID,287.007,VALID,28.9653,VALID,156,VALID,2.04375,
2008-07-23, 09:01:04,VALID,1004.71,VALID,0,VALID,75.2818,VALID,273.632,VALID,28.792,VALID,140,VALID,1.47812,
2008-07-23, 09:02:04,VALID,1004.68,VALID,0,VALID,75.7777,VALID,802.392,VALID,28.6534,VALID,96,VALID,0.966406,
2008-07-23, 09:03:04,VALID,1004.65,VALID,0,VALID,77.2043,VALID,248.592,VALID,28.7725,VALID,140,VALID,0.448438,
2008-07-23, 09:04:04,VALID,1004.67,VALID,0,VALID,76.4795,VALID,195.796,VALID,28.8093,VALID,177,VALID,1.13477,
2008-07-23, 09:05:04,VALID,1004.66,VALID,0,VALID,75.3428,VALID,178.7,VALID,28.7509,VALID,188,VALID,2.08203,
2008-07-23, 09:06:04,VALID,1004.69,VALID,0,VALID,76.3422,VALID,181.617,VALID,28.5559,VALID,187,VALID,1.82187,
2008-07-23, 09:07:04,VALID,1004.68,VALID,0,VALID,78.6232,VALID,189.662,VALID,28.361,VALID,152,VALID,1.81562,
2008-07-23, 09:08:04,VALID,1004.66,VALID,0,VALID,78.7987,VALID,196.701,VALID,28.2635,VALID,158,VALID,1.69062,
2008-07-23, 09:09:04,VALID,1004.62,VALID,0,VALID,79.0199,VALID,226.87,VALID,28.2245,VALID,164,VALID,1.20859,
2008-07-23, 09:10:04,VALID,1004.58,VALID,0,VALID,78.5698,VALID,242.96,VALID,28.244,VALID,182,VALID,1.23008,
2008-07-23, 09:11:04,VALID,1004.58,VALID,0,VALID,78.8674,VALID,251.206,VALID,28.2245,VALID,200,VALID,1.06445,
2008-07-23, 09:12:04,VALID,1004.55,VALID,0,VALID,79.1496,VALID,273.531,VALID,28.2267,VALID,178,VALID,1.13203,
2008-07-23, 09:13:04,VALID,1004.56,VALID,0,VALID,79.3861,VALID,262.771,VALID,28.1855,VALID,199,VALID,1.66641,
2008-07-23, 09:14:04,VALID,1004.54,VALID,0,VALID,80.5839,VALID,256.033,VALID,28.1877,VALID,194,VALID,1.1707,
2008-07-23, 09:15:04,VALID,1004.52,VALID,0,VALID,80.9043,VALID,273.129,VALID,28.2635,VALID,186,VALID,1.14336,
2008-07-23, 09:16:04,VALID,1004.5,VALID,0,VALID,77.7993,VALID,299.678,VALID,28.3241,VALID,182,VALID,1.75156,
2008-07-23, 09:17:04,VALID,1004.5,VALID,0,VALID,79.2107,VALID,877.914,VALID,28.3241,VALID,160,VALID,1.78359,
2008-07-23, 09:18:04,VALID,1004.44,VALID,0,VALID,78.1121,VALID,817.778,VALID,28.5191,VALID,167,VALID,1.08438,
2008-07-23, 09:19:04,VALID,1004.41,VALID,0,VALID,76.3727,VALID,276.347,VALID,28.6729,VALID,112,VALID,1.21172,
2008-07-23, 09:20:04,VALID,1004.41,VALID,0,VALID,76.3422,VALID,277.956,VALID,28.6945,VALID,180,VALID,1.15273,
2008-07-23, 09:21:04,VALID,1004.36,VALID,0,VALID,76.8305,VALID,280.369,VALID,28.6924,VALID,156,VALID,0.796484,
2008-07-23, 09:22:04,VALID,1004.37,VALID,0,VALID,76.2888,VALID,751.809,VALID,28.714,VALID,200,VALID,1.10234,
2008-07-23, 09:23:04,VALID,1004.38,VALID,0,VALID,77.2272,VALID,741.953,VALID,28.7314,VALID,161,VALID,2.48516,
2008-07-23, 09:24:04,VALID,1004.39,VALID,0,VALID,75.0987,VALID,327.232,VALID,28.7704,VALID,135,VALID,2.90078,
2008-07-23, 09:25:04,VALID,1004.42,VALID,0,VALID,76.5863,VALID,250.301,VALID,28.6945,VALID,138,VALID,2.24375,
2008-07-23, 09:26:04,VALID,1004.42,VALID,0,VALID,75.709,VALID,301.89,VALID,28.6339,VALID,161,VALID,1.81953,
2008-07-23, 09:27:04,VALID,1004.39,VALID,0,VALID,76.5558,VALID,229.485,VALID,28.6361,VALID,146,VALID,1.50312,
2008-07-23, 09:28:04,VALID,1004.41,VALID,0,VALID,76.9296,VALID,203.238,VALID,28.5754,VALID,176,VALID,2.78516,
2008-07-23, 09:29:04,VALID,1004.39,VALID,0,VALID,77.7154,VALID,278.258,VALID,28.4974,VALID,158,VALID,1.85234,
2008-07-23, 09:30:04,VALID,1004.34,VALID,0,VALID,76.3346,VALID,528.458,VALID,28.4779,VALID,167,VALID,1.87266,
2008-07-23, 09:31:04,VALID,1004.35,VALID,0,VALID,79.0886,VALID,392.095,VALID,28.5559,VALID,156,VALID,1.52813,
2008-07-23, 09:32:04,VALID,1004.36,VALID,0,VALID,77.7612,VALID,280.872,VALID,28.6361,VALID,147,VALID,1.60195,
2008-07-23, 09:33:04,VALID,1004.35,VALID,0,VALID,78.0892,VALID,275.643,VALID,28.6166,VALID,123,VALID,1.34687,
2008-07-23, 09:34:04,VALID,1004.36,VALID,0,VALID,77.6925,VALID,288.314,VALID,28.5169,VALID,107,VALID,1.99258,
2008-07-23, 09:35:04,VALID,1004.34,VALID,0,VALID,77.5628,VALID,416.632,VALID,28.4411,VALID,121,VALID,2.42227,
2008-07-23, 09:36:04,VALID,1004.35,VALID,0,VALID,79.5158,VALID,890.083,VALID,28.4194,VALID,131,VALID,2.06133,
2008-07-23, 09:37:04,VALID,1004.34,VALID,0,VALID,77.4179,VALID,254.827,VALID,28.4216,VALID,119,VALID,2.39102,
2008-07-23, 09:38:04,VALID,1004.32,VALID,0,VALID,78.3791,VALID,195.997,VALID,28.4,VALID,99,VALID,1.42539,
2008-07-23, 09:39:04,VALID,1004.32,VALID,0,VALID,78.7606,VALID,662.408,VALID,28.361,VALID,97,VALID,1.32266,
2008-07-23, 09:40:04,VALID,1004.31,VALID,0,VALID,79.2946,VALID,806.515,VALID,28.5169,VALID,107,VALID,0.693359,
2008-07-23, 09:41:04,VALID,1004.29,VALID,0,VALID,76.5787,VALID,840.002,VALID,28.6729,VALID,130,VALID,2.84414,
2008-07-23, 09:42:04,VALID,1004.28,VALID,0,VALID,77.334,VALID,826.728,VALID,28.7725,VALID,140,VALID,1.73555,
2008-07-23, 09:43:04,VALID,1004.27,VALID,0,VALID,76.2201,VALID,627.01,VALID,28.987,VALID,92,VALID,1.79648,
2008-07-23, 09:44:04,VALID,1004.3,VALID,0,VALID,73.8704,VALID,171.359,VALID,29.1603,VALID,151,VALID,2.72891,
2008-07-23, 09:45:04,VALID,1004.3,VALID,0,VALID,73.4814,VALID,177.996,VALID,29.0823,VALID,110,VALID,1.50312,
2008-07-23, 09:46:04,VALID,1004.34,VALID,0,VALID,75.7319,VALID,200.925,VALID,28.8873,VALID,122,VALID,1.475,
2008-07-23, 09:47:04,VALID,1004.35,VALID,0,VALID,74.8698,VALID,790.525,VALID,28.87,VALID,115,VALID,2.44023,
2008-07-23, 09:48:04,VALID,1004.32,VALID,0,VALID,74.7325,VALID,776.245,VALID,28.8483,VALID,101,VALID,2.23398,
2008-07-23, 09:49:04,VALID,1004.31,VALID,0,VALID,74.969,VALID,760.759,VALID,28.8678,VALID,90,VALID,2.20742,
2008-07-23, 09:50:04,VALID,1004.28,VALID,0,VALID,75.0453,VALID,750.3,VALID,28.9458,VALID,94,VALID,0.9875,
2008-07-23, 09:51:04,VALID,1004.21,VALID,0,VALID,75.3047,VALID,748.691,VALID,29.065,VALID,187,VALID,2.56992,
2008-07-23, 09:52:04,VALID,1004.26,VALID,0,VALID,71.9175,VALID,753.418,VALID,29.0823,VALID,142,VALID,1.68594,
2008-07-23, 09:53:04,VALID,1004.25,VALID,0,VALID,75.3047,VALID,757.34,VALID,29.1993,VALID,151,VALID,1.08828,
2008-07-23, 09:54:04,VALID,1004.21,VALID,0,VALID,73.7408,VALID,763.373,VALID,29.416,VALID,136,VALID,1.20977,
2008-07-23, 09:55:04,VALID,1004.24,VALID,0,VALID,75.2284,VALID,769.709,VALID,29.611,VALID,153,VALID,2.13789,
2008-07-23, 09:56:04,VALID,1004.2,VALID,0,VALID,70.9028,VALID,776.547,VALID,29.8255,VALID,133,VALID,3.07031,
2008-07-23, 09:57:04,VALID,1004.24,VALID,0,VALID,71.2766,VALID,778.961,VALID,29.6478,VALID,134,VALID,2.975,
2008-07-23, 09:58:04,VALID,1004.21,VALID,0,VALID,70.7426,VALID,794.749,VALID,29.6305,VALID,147,VALID,1.51992,
2008-07-23, 09:59:04,VALID,1004.22,VALID,0,VALID,70.7884,VALID,845.533,VALID,29.5893,VALID,142,VALID,1.31562,
2008-07-23, 10:00:04,VALID,1004.21,VALID,0,VALID,69.9111,VALID,850.159,VALID,29.6305,VALID,142,VALID,2.20195,
2008-07-23, 10:01:04,VALID,1004.19,VALID,0,VALID,69.8424,VALID,243.966,VALID,29.7063,VALID,149,VALID,0.896875,
2008-07-23, 10:02:04,VALID,1004.25,VALID,0,VALID,70.201,VALID,246.58,VALID,29.728,VALID,146,VALID,2.94531,
2008-07-23, 10:03:04,VALID,1004.23,VALID,0,VALID,71.6047,VALID,294.75,VALID,29.4745,VALID,164,VALID,1.94531,
2008-07-23, 10:04:04,VALID,1004.21,VALID,0,VALID,70.9867,VALID,464.098,VALID,29.3163,VALID,117,VALID,1.32109,
2008-07-23, 10:05:04,VALID,1004.23,VALID,0,VALID,74.5647,VALID,329.645,VALID,29.2795,VALID,149,VALID,0.847266,
2008-07-23, 10:06:04,VALID,1004.19,VALID,0,VALID,74.0688,VALID,328.338,VALID,29.26,VALID,178,VALID,1.99492,
2008-07-23, 10:07:04,VALID,1004.22,VALID,0,VALID,75.1063,VALID,344.931,VALID,29.26,VALID,170,VALID,1.42305,
2008-07-23, 10:08:04,VALID,1004.24,VALID,0,VALID,75.0148,VALID,443.181,VALID,29.2773,VALID,166,VALID,1.66953,
2008-07-23, 10:09:04,VALID,1004.21,VALID,0,VALID,74.4197,VALID,773.731,VALID,29.3185,VALID,197,VALID,1.95156,
2008-07-23, 10:10:04,VALID,1004.2,VALID,0,VALID,74.8012,VALID,1012.37,VALID,29.4138,VALID,179,VALID,1.89844,
2008-07-23, 10:11:04,VALID,1004.19,VALID,0,VALID,72.5507,VALID,321.701,VALID,29.5698,VALID,123,VALID,1.70938,
2008-07-23, 10:12:04,VALID,1004.16,VALID,0,VALID,72.5278,VALID,1008.55,VALID,29.5525,VALID,119,VALID,2.86602,
2008-07-23, 10:13:04,VALID,1004.17,VALID,0,VALID,72.154,VALID,315.164,VALID,29.5525,VALID,164,VALID,2.95742,
2008-07-23, 10:14:04,VALID,1004.13,VALID,0,VALID,71.2232,VALID,322.103,VALID,29.5308,VALID,129,VALID,2.73398,
2008-07-23, 10:15:04,VALID,1004.12,VALID,0,VALID,72.8177,VALID,964.6,VALID,29.377,VALID,147,VALID,2.0582,
2008-07-23, 10:16:04,VALID,1004.13,VALID,0,VALID,74.3816,VALID,966.51,VALID,29.4355,VALID,149,VALID,1.71719,
2008-07-23, 10:17:04,VALID,1004.04,VALID,0,VALID,71.8412,VALID,950.722,VALID,29.494,VALID,169,VALID,2.87852,
2008-07-23, 10:18:04,VALID,1004.07,VALID,0,VALID,72.6956,VALID,943.28,VALID,29.6478,VALID,147,VALID,3.32539,
2008-07-23, 10:19:04,VALID,1004.02,VALID,0,VALID,74.2366,VALID,399.939,VALID,29.8645,VALID,178,VALID,2.51719,
2008-07-23, 10:20:04,VALID,1004.03,VALID,0,VALID,72.4515,VALID,267.196,VALID,29.9621,VALID,146,VALID,2.93203,
2008-07-23, 10:21:04,VALID,1003.99,VALID,0,VALID,71.2766,VALID,640.284,VALID,29.7865,VALID,141,VALID,2.93203,
2008-07-23, 10:22:04,VALID,1004,VALID,0,VALID,72.1082,VALID,364.239,VALID,29.5893,VALID,144,VALID,2.92148,
2008-07-23, 10:23:04,VALID,1003.99,VALID,0,VALID,71.9709,VALID,948.208,VALID,29.4918,VALID,163,VALID,3.38047,
2008-07-23, 10:24:04,VALID,1004.03,VALID,0,VALID,70.0179,VALID,1026.24,VALID,29.533,VALID,133,VALID,1.9832,
2008-07-23, 10:25:04,VALID,1004.02,VALID,0,VALID,71.4826,VALID,1002.31,VALID,29.4918,VALID,128,VALID,2.23789,
2008-07-23, 10:26:04,VALID,1003.97,VALID,0,VALID,71.2995,VALID,1057.42,VALID,29.728,VALID,115,VALID,2.27578,
2008-07-23, 10:27:04,VALID,1003.94,VALID,0,VALID,67.6224,VALID,694.991,VALID,29.728,VALID,134,VALID,2.28281,
2008-07-23, 10:28:04,VALID,1003.92,VALID,0,VALID,72.0395,VALID,1002.71,VALID,29.7258,VALID,134,VALID,2.06523,
2008-07-23, 10:29:04,VALID,1003.88,VALID,0,VALID,71.1927,VALID,961.985,VALID,29.9013,VALID,140,VALID,1.99102,
2008-07-23, 10:30:04,VALID,1003.87,VALID,0,VALID,69.0719,VALID,263.676,VALID,29.9231,VALID,114,VALID,2.80977,
2008-07-23, 10:31:04,VALID,1003.84,VALID,0,VALID,70.1247,VALID,983.103,VALID,29.7865,VALID,130,VALID,3.26602,
2008-07-23, 10:32:04,VALID,1003.83,VALID,0,VALID,72.2226,VALID,1023.23,VALID,29.7063,VALID,158,VALID,2.15313,
2008-07-23, 10:33:04,VALID,1003.78,VALID,0,VALID,73.222,VALID,459.07,VALID,29.7085,VALID,169,VALID,2.91055,
2008-07-23, 10:34:04,VALID,1003.78,VALID,0,VALID,75.6404,VALID,715.405,VALID,29.65,VALID,176,VALID,2.38086,